GW1490 Weather Reports


time (UTC)temp
F
wind
direction
speed
knots
gust
knots
rain 1hr
in
rain 24hr
in
rain mn
in
humidity
%
barometer
mb
20260504141236 59 149 7.0 8.7 0.00 0.00 0.02 71 994.9
20260504140653 59 212 4.3 7.0 0.00 0.00 0.02 72 994.9
20260504130633 57 187 5.2 8.7 0.00 0.00 0.02 68 994.5
20260504110627 45 216 0.9 1.7 0.00 0.00 0.02 98 994.5
20260504081815 46 225 0.9 0.9 0.00 0.00 0.02 99 995.2
20260504081216 46 229 0.0 0.0 0.00 0.00 0.02 99 995.5
20260504080626 46 234 0.0 0.9 0.00 0.00 0.02 99 995.5
20260504045417 49 234 0.0 0.0 0.00 0.00 0.02 97 997.2
20260504044831 49 235 0.0 0.0 0.00 0.00 0.02 97 996.9
20260504044221 48 236 0.0 0.0 0.00 0.00 0.02 96 996.9
20260504043642 49 236 0.0 0.0 0.00 0.00 0.02 96 997.2
20260504043048 49 237 0.0 0.0 0.00 0.00 0.02 95 996.9
20260504042431 49 249 0.0 0.9 0.00 0.00 0.02 94 996.9
20260504041228 50 220 0.9 0.9 0.00 0.00 0.01 91 997.2
20260504040644 51 234 0.0 0.0 0.00 0.00 0.01 87 996.9
20260504040030 52 231 0.9 0.9 0.00 0.00 0.00 80 997.2
20260504035428 52 200 1.7 2.6 0.00 0.00 0.00 76 996.9
20260504034215 51 193 1.7 3.5 0.00 0.00 0.00 80 996.9
20260504033612 52 75 1.7 2.6 0.00 0.00 0.00 76 996.6
20260504033036 53 237 0.0 0.9 0.00 0.00 0.00 73 997.2
20260504031244 52 97 3.5 3.5 0.00 0.00 0.00 73 996.6
20260504030018 53 234 0.0 0.0 0.00 0.00 0.00 72 996.6
20260504025414 53 233 0.0 0.9 0.00 0.00 0.00 72 996.9
20260504024824 53 230 0.0 1.7 0.00 0.00 0.00 72 996.9
20260504024220 53 234 0.0 0.0 0.00 0.00 0.00 75 996.9
20260504023633 53 241 0.9 0.9 0.00 0.00 0.00 72 997.2
20260504023027 52 230 0.0 1.7 0.00 0.00 0.00 71 996.9
20260504022437 53 21 1.7 1.7 0.00 0.00 0.00 71 996.9
20260504021834 53 235 0.0 0.0 0.00 0.00 0.00 70 996.9
20260504020620 53 235 0.0 0.0 0.00 0.00 0.00 71 996.6
20260504020020 53 233 0.0 0.0 0.00 0.00 0.00 68 996.6
20260504015443 54 228 0.0 0.9 0.00 0.00 0.00 67 996.6
20260504014826 54 230 0.0 0.0 0.00 0.00 0.00 67 996.6
20260504014244 54 230 0.0 0.9 0.00 0.00 0.00 66 996.2
20260504013650 54 230 0.0 0.9 0.00 0.00 0.00 64 996.2
20260504012412 54 230 0.0 0.0 0.00 0.00 0.00 67 996.2
20260504011837 54 234 0.0 0.0 0.00 0.00 0.00 66 996.6
20260504011214 55 240 0.0 0.0 0.00 0.00 0.00 67 996.6
20260504010635 54 233 0.0 0.0 0.00 0.00 0.00 62 996.6
20260504010049 55 239 0.0 0.0 0.00 0.00 0.00 62 996.2
20260504005438 55 234 0.0 0.0 0.00 0.00 0.00 63 996.6
20260504004247 56 234 0.0 0.0 0.00 0.00 0.00 62 996.6
20260504003614 56 235 0.0 0.0 0.00 0.00 0.00 60 996.6
20260504003040 56 231 0.0 0.0 0.00 0.00 0.00 52 996.6
20260504002436 57 234 0.0 0.0 0.00 0.00 0.00 51 996.6
20260504001818 58 242 0.0 0.0 0.00 0.00 0.00 48 996.2
20260504001219 58 236 0.0 0.0 0.00 0.00 0.00 55 996.6
20260504000654 59 237 0.0 0.0 0.00 0.00 0.00 47 996.6
20260504000042 59 231 0.0 0.9 0.00 0.00 0.00 45 996.2
20260503235412 60 233 0.0 0.0 0.00 0.00 0.00 46 996.2
20260503234815 60 234 0.0 0.0 0.00 0.00 0.00 45 996.6
20260503234236 60 235 0.0 0.0 0.00 0.00 0.00 42 996.2
20260503233627 61 235 0.0 0.0 0.00 0.00 0.00 39 996.2
20260503233035 61 228 0.9 1.7 0.00 0.00 0.00 40 996.2
20260503232447 61 160 1.7 2.6 0.00 0.00 0.00 38 996.2
20260503231819 61 176 3.5 5.2 0.00 0.00 0.00 37 996.6
20260503231252 61 145 3.5 5.2 0.00 0.00 0.00 37 996.6
20260503230636 62 163 1.7 3.5 0.00 0.00 0.00 38 996.9
20260503230041 62 211 0.9 1.7 0.00 0.00 0.00 40 996.9
20260503224223 62 202 1.7 2.6 0.00 0.00 0.00 37 997.2
20260503223614 62 231 1.7 2.6 0.00 0.00 0.00 42 996.9
20260503223014 62 192 1.7 2.6 0.00 0.00 0.00 37 996.9
20260503222422 62 137 4.3 6.1 0.00 0.00 0.00 38 997.2
20260503221820 62 203 2.6 3.5 0.00 0.00 0.00 37 997.2
20260503221224 63 189 5.2 7.0 0.00 0.00 0.00 35 997.2
20260503220654 62 176 2.6 8.7 0.00 0.00 0.00 35 997.2
20260503220044 62 162 4.3 7.0 0.00 0.00 0.00 36 997.2
20260503215439 63 254 1.7 2.6 0.00 0.00 0.00 40 997.2
20260503214810 63 217 1.7 2.6 0.00 0.00 0.00 36 997.2
20260503214224 63 166 3.5 5.2 0.00 0.00 0.00 36 997.2
20260503213647 63 191 1.7 2.6 0.00 0.00 0.00 35 997.2
20260503212440 62 240 1.7 1.7 0.00 0.00 0.00 43 997.2
20260503211827 63 163 4.3 7.0 0.00 0.00 0.00 35 997.2
20260503211227 62 238 0.9 1.7 0.00 0.00 0.00 38 997.2
20260503210647 62 238 0.9 2.6 0.00 0.00 0.00 39 997.2
20260503210017 62 240 0.9 7.0 0.00 0.00 0.00 37 997.6
20260503205430 62 160 2.6 3.5 0.00 0.00 0.00 39 997.6
20260503204242 62 224 0.9 1.7 0.00 0.00 0.00 40 997.6
20260503203038 62 228 0.9 0.9 0.00 0.00 0.00 38 997.9
20260503202422 62 219 2.6 5.2 0.00 0.00 0.00 36 997.9
20260503201816 62 203 1.7 3.5 0.00 0.00 0.00 37 997.9
20260503201234 61 225 0.0 1.7 0.00 0.00 0.00 37 997.9
20260503200625 62 200 1.7 3.5 0.00 0.00 0.00 35 998.3
20260503200026 62 228 1.7 3.5 0.00 0.00 0.00 40 998.3
20260503195409 61 245 0.0 2.6 0.00 0.00 0.00 35 998.6
20260503194821 61 186 2.6 7.0 0.00 0.00 0.00 36 998.6
20260503194241 62 226 0.9 1.7 0.00 0.00 0.00 39 998.9
20260503193621 62 151 5.2 6.1 0.00 0.00 0.00 36 998.9
20260503193043 62 158 1.7 5.2 0.00 0.00 0.00 38 998.9
20260503192436 62 144 2.6 3.5 0.00 0.00 0.00 36 998.9
20260503191842 62 216 1.7 3.5 0.00 0.00 0.00 37 998.9
20260503191249 61 241 2.6 7.0 0.00 0.00 0.00 38 999.3
20260503190636 61 231 1.7 2.6 0.00 0.00 0.00 43 999.6
20260503190052 60 255 0.9 1.7 0.00 0.00 0.00 41 999.6
20260503185423 61 232 3.5 3.5 0.00 0.00 0.00 42 999.6
20260503184846 62 231 0.9 2.6 0.00 0.00 0.00 43 999.6
20260503184216 61 185 4.3 7.0 0.00 0.00 0.00 38 1000.0
20260503183031 62 157 4.3 8.7 0.00 0.00 0.00 38 1000.0
20260503182446 60 131 0.9 6.1 0.00 0.00 0.00 44 1000.0
20260503181853 60 193 1.7 3.5 0.00 0.00 0.00 38 1000.0
20260503181236 59 211 1.7 2.6 0.00 0.00 0.00 40 1000.3
20260503180651 60 283 0.9 3.5 0.00 0.00 0.00 41 1000.3
20260503180027 60 209 1.7 1.7 0.00 0.00 0.00 47 1000.6
20260503175417 59 234 0.9 3.5 0.00 0.00 0.00 39 1000.3
20260503174820 60 169 5.2 6.1 0.00 0.00 0.00 38 1000.6
20260503174213 60 185 3.5 5.2 0.00 0.00 0.00 39 1000.6
20260503173628 59 161 0.9 3.5 0.00 0.00 0.00 47 1000.6
20260503173035 58 206 2.6 2.6 0.00 0.00 0.00 44 1001.0
20260503172413 57 248 1.7 2.6 0.00 0.00 0.00 48 1001.0
20260503171814 59 239 1.7 1.7 0.00 0.00 0.00 39 1001.0
20260503171254 58 216 1.7 1.7 0.00 0.00 0.00 40 1001.0
20260503150630 54 208 1.7 6.1 0.00 0.00 0.00 48 1002.3